User: anonymous   Login
Location: Waco, TX
(31.5480°N, 97.1670°W)
Time: 12:13:03
(UTC-06:00)
Language:

ISS - Orbit

View from above orbital plane
View from above orbital plane
View from above satellite
View from above satellite

Ground track
Ground track

The orbit data is extracted from the following two-line orbital elements,

1 25544U 98067A   19024.56280591  .00016717  00000-0  10270-3 0  9032
2 25544  51.6393 355.5540 0004754 305.1801  54.8906 15.53200446 32933
Epoch (UTC): 24 January 2019 13:30:26
Eccentricity: 0.0004754
inclination: 51.6393°
perigee height: 404 km
apogee height: 410 km
right ascension of ascending node: 355.5540°
argument of perigee: 305.1801°
revolutions per day: 15.53200446
mean anomaly at epoch: 54.8906°
orbit number at epoch: 3293

The dashed part of the orbit path shows where the satellite is in the earth's shadow,  

DLR